Simultaneous Nadir Overpasses (SNOs) Predictions

Prediction of SNOs between METOP-B and NOAA-19 Satellite Orbit:

Table of predicted SNOs for the next 14.0 days since TLE Epoch: 10/13/2013
Index Date (METOP-B) Time (METOP-B) Lat,Lon (METOP-B) SZA (METOP-B ) Date (NOAA-19) Time (NOAA-19) Lat,Lon (NOAA-19) SZA (NOAA-19 ) Distance(km) Time Diff (sec)
1 10/22/2013 19:07:57 -73.96, 67.84 94.82 10/22/2013 19:06:47 -73.97, 65.95 94.78 58.06 70
2 10/22/2013 19:58:45 73.58,-125.73 84.83 10/22/2013 19:57:41 73.57,-125.81 84.81 3.38 64
3 10/22/2013 20:49:27 -73.54, 41.51 95.21 10/22/2013 20:48:42 -73.52, 41.54 95.23 2.57 45
4 10/22/2013 21:40:08 73.51,-151.23 84.78 10/22/2013 21:39:44 73.50,-151.18 84.77 2.03 24
5 10/22/2013 22:30:49 -73.52, 16.12 95.21 10/22/2013 22:30:46 -73.51, 16.05 95.22 2.51 3
6 10/22/2013 23:21:30 73.49,-176.63 84.78 10/22/2013 23:21:48 73.49,-176.66 84.78 1.12 18
7 10/23/2013 00:12:12 -73.45, -9.39 95.25 10/23/2013 00:12:49 -73.44, -9.31 95.26 2.54 37
8 10/23/2013 01:02:53 73.41, 157.87 84.73 10/23/2013 01:03:51 73.42, 157.97 84.74 3.41 58
9 10/23/2013 01:53:37 -73.27, -35.12 95.40 10/23/2013 01:54:50 -73.28, -34.45 95.40 21.22 73




NCC Satellite Simultaneous Nadir Overpasses (SNOs) Prediction Service
